TimeEDT,TemperatureF,Dew PointF,Humidity,Sea Level PressureIn,VisibilityMPH,Wind Direction,Wind SpeedMPH,Gust SpeedMPH,PrecipitationIn,Events,Conditions,WindDirDegrees,DateUTC
12:15 AM,52.7,51.6,96,29.97,1.2,Calm,Calm,-,N/A,,Mostly Cloudy,0,2013-09-25 04:15:00
12:35 AM,52.9,51.8,96,29.97,1.0,Calm,Calm,-,N/A,,Mostly Cloudy,0,2013-09-25 04:35:00
12:55 AM,52.7,51.6,96,29.97,4.0,Calm,Calm,-,N/A,,Clear,0,2013-09-25 04:55:00
1:15 AM,53.1,52.0,96,29.97,2.5,Calm,Calm,-,N/A,,Clear,0,2013-09-25 05:15:00
1:35 AM,52.9,51.8,96,29.96,2.5,Calm,Calm,-,N/A,,Scattered Clouds,0,2013-09-25 05:35:00
1:55 AM,52.7,51.4,95,29.96,1.2,Calm,Calm,-,N/A,,Mist,0,2013-09-25 05:55:00
2:15 AM,52.2,51.1,96,29.96,1.8,Calm,Calm,-,N/A,,Mist,0,2013-09-25 06:15:00
2:35 AM,51.8,50.7,96,29.96,7.0,Calm,Calm,-,N/A,,Scattered Clouds,0,2013-09-25 06:35:00
2:55 AM,51.6,50.5,96,29.96,0.5,Calm,Calm,-,N/A,Fog,Fog,0,2013-09-25 06:55:00
3:35 AM,50.7,49.6,96,29.95,0.8,Calm,Calm,-,N/A,,Overcast,0,2013-09-25 07:35:00
3:55 AM,50.2,49.1,96,29.95,0.2,Calm,Calm,-,N/A,Fog,Fog,0,2013-09-25 07:55:00
4:15 AM,50.0,48.9,96,29.95,0.5,Calm,Calm,-,N/A,Fog,Fog,0,2013-09-25 08:15:00
4:35 AM,49.6,48.6,96,29.95,1.2,Calm,Calm,-,N/A,,Mostly Cloudy,0,2013-09-25 08:35:00
4:55 AM,49.5,48.6,97,29.95,3.0,Calm,Calm,-,N/A,,Scattered Clouds,0,2013-09-25 08:55:00
5:35 AM,49.5,48.6,97,29.95,7.0,Calm,Calm,-,N/A,,Scattered Clouds,0,2013-09-25 09:35:00
5:55 AM,49.5,48.4,96,29.95,0.5,Calm,Calm,-,N/A,Fog,Fog,0,2013-09-25 09:55:00
6:15 AM,49.1,48.0,96,29.95,5.0,Calm,Calm,-,N/A,,Overcast,0,2013-09-25 10:15:00
6:35 AM,48.9,47.8,96,29.94,4.0,Calm,Calm,-,N/A,,Overcast,0,2013-09-25 10:35:00
6:55 AM,48.7,47.7,96,29.94,0.2,Calm,Calm,-,N/A,Fog,Fog,0,2013-09-25 10:55:00
7:15 AM,48.6,47.5,96,29.94,0.2,Calm,Calm,-,N/A,Fog,Fog,0,2013-09-25 11:15:00
7:35 AM,48.7,47.8,97,29.94,0.2,Calm,Calm,-,N/A,Fog,Fog,0,2013-09-25 11:35:00
7:55 AM,50.4,49.5,97,29.94,2.0,Calm,Calm,-,N/A,,Mostly Cloudy,0,2013-09-25 11:55:00
8:15 AM,53.1,52.2,97,29.94,3.0,Calm,Calm,-,N/A,,Clear,0,2013-09-25 12:15:00
8:35 AM,55.8,54.7,96,29.94,5.0,Calm,Calm,-,N/A,,Clear,0,2013-09-25 12:35:00
8:55 AM,57.6,56.5,96,29.95,7.0,Calm,Calm,-,N/A,,Clear,0,2013-09-25 12:55:00
9:15 AM,59.7,57.9,94,29.95,10.0,Calm,Calm,-,N/A,,Clear,0,2013-09-25 13:15:00
9:35 AM,62.6,58.5,86,29.96,10.0,Calm,Calm,-,N/A,,Clear,0,2013-09-25 13:35:00
9:55 AM,65.3,58.6,79,29.96,10.0,Calm,Calm,-,N/A,,Clear,0,2013-09-25 13:55:00
10:15 AM,67.1,58.8,75,29.96,10.0,West,3.5,-,N/A,,Clear,260,2013-09-25 14:15:00
10:35 AM,67.8,58.1,71,29.96,10.0,WNW,3.5,-,N/A,,Clear,290,2013-09-25 14:35:00
10:55 AM,67.8,57.9,71,29.96,10.0,Calm,Calm,-,N/A,,Clear,0,2013-09-25 14:55:00
11:15 AM,68.4,57.7,69,29.95,10.0,Calm,Calm,-,N/A,,Clear,0,2013-09-25 15:15:00
11:35 AM,69.3,58.1,68,29.95,10.0,Calm,Calm,-,N/A,,Clear,0,2013-09-25 15:35:00
11:55 AM,71.4,58.3,63,29.94,10.0,Calm,Calm,-,N/A,,Clear,0,2013-09-25 15:55:00
12:15 PM,71.4,56.7,60,29.95,10.0,Calm,Calm,-,N/A,,Scattered Clouds,0,2013-09-25 16:15:00
12:35 PM,71.2,56.5,60,29.94,10.0,Calm,Calm,-,N/A,,Mostly Cloudy,0,2013-09-25 16:35:00
12:55 PM,72.5,56.8,58,29.93,10.0,NNE,4.6,-,N/A,,Mostly Cloudy,30,2013-09-25 16:55:00
1:15 PM,73.2,56.7,56,29.93,10.0,East,3.5,-,N/A,,Scattered Clouds,80,2013-09-25 17:15:00
1:35 PM,73.2,56.3,55,29.92,10.0,Calm,Calm,-,N/A,,Scattered Clouds,0,2013-09-25 17:35:00
2:15 PM,74.7,56.3,53,29.91,10.0,Calm,Calm,-,N/A,,Mostly Cloudy,0,2013-09-25 18:15:00
2:55 PM,73.6,56.1,54,29.90,10.0,NE,3.5,-,N/A,,Overcast,40,2013-09-25 18:55:00
3:15 PM,74.8,55.6,51,29.90,10.0,NE,4.6,-,N/A,,Scattered Clouds,50,2013-09-25 19:15:00
3:35 PM,76.6,56.5,50,29.89,10.0,ESE,3.5,-,N/A,,Mostly Cloudy,110,2013-09-25 19:35:00
3:55 PM,73.9,56.1,54,29.89,10.0,Calm,Calm,-,N/A,,Scattered Clouds,0,2013-09-25 19:55:00
4:15 PM,73.2,56.5,56,29.88,10.0,East,3.5,-,N/A,,Mostly Cloudy,90,2013-09-25 20:15:00
4:55 PM,72.5,57.4,59,29.87,10.0,ESE,3.5,-,N/A,,Clear,110,2013-09-25 20:55:00
5:15 PM,72.7,57.4,59,29.88,10.0,Calm,Calm,-,N/A,,Clear,0,2013-09-25 21:15:00
5:35 PM,73.0,57.6,58,29.87,10.0,Calm,Calm,-,N/A,,Scattered Clouds,0,2013-09-25 21:35:00
5:55 PM,71.8,58.6,63,29.87,10.0,Calm,Calm,-,N/A,,Clear,0,2013-09-25 21:55:00
6:15 PM,72.3,59.0,63,29.88,10.0,Calm,Calm,-,N/A,,Clear,0,2013-09-25 22:15:00
6:35 PM,71.4,58.5,64,29.88,10.0,Calm,Calm,-,N/A,,Scattered Clouds,0,2013-09-25 22:35:00
6:55 PM,68.4,59.9,74,29.89,10.0,Calm,Calm,-,N/A,,Scattered Clouds,0,2013-09-25 22:55:00
7:15 PM,65.3,60.3,84,29.89,10.0,Calm,Calm,-,N/A,,Scattered Clouds,0,2013-09-25 23:15:00
7:35 PM,64.4,60.6,88,29.89,10.0,Calm,Calm,-,N/A,,Scattered Clouds,0,2013-09-25 23:35:00
7:55 PM,64.6,61.7,90,29.89,10.0,Calm,Calm,-,N/A,,Mostly Cloudy,0,2013-09-25 23:55:00
8:15 PM,64.4,61.7,91,29.89,10.0,Calm,Calm,-,N/A,,Mostly Cloudy,0,2013-09-26 00:15:00
8:35 PM,64.4,61.5,90,29.89,10.0,Calm,Calm,-,N/A,,Mostly Cloudy,0,2013-09-26 00:35:00
8:55 PM,64.0,61.7,92,29.89,10.0,Calm,Calm,-,N/A,,Mostly Cloudy,0,2013-09-26 00:55:00
9:15 PM,63.1,61.2,93,29.89,7.0,Calm,Calm,-,N/A,,Scattered Clouds,0,2013-09-26 01:15:00
9:35 PM,62.6,60.8,94,29.89,5.0,Calm,Calm,-,N/A,,Mostly Cloudy,0,2013-09-26 01:35:00
9:55 PM,61.7,60.1,94,29.89,7.0,Calm,Calm,-,N/A,,Overcast,0,2013-09-26 01:55:00
10:15 PM,61.0,59.4,94,29.90,5.0,Calm,Calm,-,N/A,,Overcast,0,2013-09-26 02:15:00
10:35 PM,60.8,59.4,95,29.90,1.2,Calm,Calm,-,N/A,,Mostly Cloudy,0,2013-09-26 02:35:00
10:55 PM,60.1,58.5,94,29.89,0.5,Calm,Calm,-,N/A,Fog,Fog,0,2013-09-26 02:55:00
11:15 PM,59.7,58.3,95,29.89,1.8,Calm,Calm,-,N/A,,Scattered Clouds,0,2013-09-26 03:15:00
11:35 PM,59.2,57.7,95,29.89,3.0,Calm,Calm,-,N/A,,Scattered Clouds,0,2013-09-26 03:35:00
11:55 PM,59.5,58.1,95,29.89,7.0,Calm,Calm,-,N/A,,Mostly Cloudy,0,2013-09-26 03:55:00